Monterey, Australia

6:43 AM AEDT on January 21, 2018 (GMT +1100)
Monterey

Weather History for 94767 - June, 2013

Change the Weather History Date:

Tuesday, June 18, 2013

  Actual Average Record
Temperature  
Mean Temperature 54 °F -  
Max Temperature 62 °F 62 °F - ()
Min Temperature 47 °F 45 °F - ()
Degree Days  
Heating Degree Days 10    
Growing Degree Days 4 (Base 50)    
Moisture  
Dew Point 44 °F    
Average Humidity 66    
Maximum Humidity 94    
Minimum Humidity 35    
Precipitation  
Precipitation 0.39 in 0.11 in - ()
Sea Level Pressure  
Sea Level Pressure 29.92 in    
Wind  
Wind Speed 13 mph ()    
Max Wind Speed 23 mph    
Max Gust Speed -    
Visibility 6.6 miles    
Events Rain    
T = Trace of Precipitation, MM = Missing Value Source: Averaged Metar Reports

Daily Weather History Graph

Daily Weather History Graph

Search for Another Location

Airport or City:

Trip Planner

Search our weather history database for the weather conditions in past years. The results will help you decide how hot, cold, wet, or windy it might be!

Date:

Astronomy

Jun. 18, 2013 Rise Set
Actual Time 6:59 AM AEST 4:53 PM AEST
Civil Twilight 6:31 AM AEST 5:20 PM AEST
Nautical Twilight 6:00 AM AEST 5:52 PM AEST
Astronomical Twilight 5:29 AM AEST 6:22 PM AEST
Moon 12:35 PM AEST (6/18) 12:49 AM AEST (6/18)
Length of Visible Light 10h 49m
Length of Day
9h 53m
Waxing Gibbous, 64% of the Moon is Illuminated
Jun 18
Waxing Gibbous
Jun 23
Full
Jun 30
Last Quarter
Jul 8
New
Jul 16
First Quarter

Hourly Weather History & Observations

Time (AEST) Temp. Dew Point Humidity Pressure Visibility Wind Dir Wind Speed Gust Speed Precip Events Conditions
12:00 AM 53 °F 41 °F 54% 29.86 in 25 mi WSW 16.1 mph - -   Partly Cloudy
12:00 AM 53.6 °F 41.0 °F 62% 29.86 in - WSW 16.1 mph - N/A   Clear
12:30 AM 51.8 °F 41.0 °F 67% 29.86 in - WSW 16.1 mph - N/A   Clear
1:00 AM 52 °F 40 °F 54% 29.87 in - WSW 15.0 mph - -  
1:00 AM 51.8 °F 41.0 °F 67% 29.86 in - WSW 15.0 mph - N/A   Clear
1:30 AM 51.8 °F 39.2 °F 62% 29.86 in - WSW 17.3 mph - N/A   Clear
2:00 AM 51.8 °F 41.0 °F 67% 29.86 in - WSW 17.3 mph - N/A   Clear
2:30 AM 51.8 °F 41.0 °F 67% 29.86 in - WSW 13.8 mph - N/A   Clear
3:00 AM 51 °F 40 °F 57% 29.87 in 25 mi WSW 16.1 mph - -   Partly Cloudy
3:00 AM 51.8 °F 41.0 °F 67% 29.86 in - WSW 16.1 mph - N/A   Clear
3:30 AM 51.8 °F 41.0 °F 67% 29.86 in - WSW 13.8 mph - N/A   Clear
4:00 AM 51 °F 40 °F 55% 29.87 in - West 15.0 mph - -  
4:00 AM 51.8 °F 39.2 °F 62% 29.86 in - West 15.0 mph - N/A   Clear
4:30 AM 51.8 °F 39.2 °F 62% 29.86 in - WSW 15.0 mph - N/A   Clear
5:00 AM 50.0 °F 41.0 °F 71% 29.86 in - West 12.7 mph - N/A   Clear
5:30 AM 50.0 °F 39.2 °F 66% 29.86 in - West 15.0 mph - N/A   Clear
6:00 AM 50 °F 40 °F 58% 29.89 in 25 mi WSW 13.8 mph - -   Partly Cloudy
6:00 AM 50.0 °F 39.2 °F 66% 29.89 in - WSW 13.8 mph - N/A   Clear
6:30 AM 50.0 °F 41.0 °F 71% 29.89 in 6.2 mi West 15.0 mph - N/A   Partly Cloudy
7:00 AM 48 °F 40 °F 64% 29.91 in - West 12.7 mph - -  
7:00 AM 48.2 °F 39.2 °F 71% 29.89 in 6.2 mi West 12.7 mph - N/A   Scattered Clouds
7:30 AM 50.0 °F 39.2 °F 66% 29.92 in 6.2 mi WNW 12.7 mph - N/A   Partly Cloudy
8:00 AM 50.0 °F 41.0 °F 71% 29.92 in 6.2 mi West 11.5 mph - N/A   Partly Cloudy
8:30 AM 51.8 °F 41.0 °F 67% 29.92 in 6.2 mi West 11.5 mph - N/A   Partly Cloudy
9:00 AM 54 °F 41 °F 51% 29.93 in 25 mi West 16.1 mph - -   Partly Cloudy
9:00 AM 53.6 °F 41.0 °F 62% 29.92 in 6.2 mi West 16.1 mph - N/A   Partly Cloudy
9:30 AM 55.4 °F 41.0 °F 58% 29.92 in 6.2 mi West 9.2 mph - N/A   Partly Cloudy
10:00 AM 58 °F 42 °F 43% 29.94 in - West 10.4 mph - -  
10:00 AM 59.0 °F 41.0 °F 51% 29.92 in 6.2 mi West 10.4 mph - N/A   Partly Cloudy
10:30 AM 60.8 °F 41.0 °F 48% 29.92 in 6.2 mi West 11.5 mph - N/A   Partly Cloudy
11:00 AM 59.0 °F 41.0 °F 51% 29.92 in 6.2 mi WSW 11.5 mph - N/A   Partly Cloudy
11:30 AM 60.8 °F 41.0 °F 48% 29.92 in 6.2 mi WSW 9.2 mph - N/A   Partly Cloudy
12:00 PM 60 °F 40 °F 35% 29.91 in 25 mi West 9.2 mph - -   Partly Cloudy
12:00 PM 60.8 °F 39.2 °F 45% 29.89 in 6.2 mi West 9.2 mph - N/A   Partly Cloudy
12:30 PM 62.6 °F 41.0 °F 45% 29.89 in 6.2 mi WSW 8.1 mph - N/A   Partly Cloudy
1:00 PM 62 °F 41 °F 35% 29.89 in - South 8.1 mph - -  
1:00 PM 62.6 °F 41.0 °F 45% 29.89 in 6.2 mi South 8.1 mph - N/A   Partly Cloudy
1:30 PM 60.8 °F 42.8 °F 52% 29.89 in 6.2 mi South 13.8 mph - N/A   Partly Cloudy
2:00 PM 59.0 °F 44.6 °F 59% 29.89 in 6.2 mi South 15.0 mph - N/A   Partly Cloudy
2:30 PM 60.8 °F 44.6 °F 55% 29.89 in - South 13.8 mph - N/A   Clear
3:00 PM 60 °F 47 °F 51% 29.89 in 19 mi South 17.3 mph - -   Scattered Clouds
3:00 PM 60.8 °F 46.4 °F 59% 29.89 in 6.2 mi South 17.3 mph - N/A   Partly Cloudy
3:30 PM 60.8 °F 48.2 °F 63% 29.89 in 6.2 mi South 19.6 mph - N/A   Partly Cloudy
4:00 PM 58 °F 49 °F 64% 29.92 in - South 21.9 mph - -  
4:00 PM 57.2 °F 50.0 °F 77% 29.89 in 6.2 mi South 21.9 mph - N/A   Scattered Clouds
4:30 PM 57.2 °F 48.2 °F 72% 29.92 in 6.2 mi South 23.0 mph - N/A   Scattered Clouds
5:00 PM 57.2 °F 46.4 °F 67% 29.95 in 6.2 mi South 20.7 mph - N/A Rain Light Rain Showers
5:30 PM 57.2 °F 46.4 °F 67% 29.95 in 6.2 mi South 19.6 mph - N/A Rain Light Rain Showers
6:00 PM 56 °F 48 °F 68% 29.98 in 11 mi South 18.4 mph - - Rain Light Rain Showers
6:00 PM 55.4 °F 48.2 °F 77% 29.98 in 6.2 mi South 18.4 mph - N/A Rain Light Rain Showers
6:30 PM 55.4 °F 48.2 °F 77% 29.98 in 6.2 mi South 15.0 mph - N/A Rain Light Rain Showers
7:00 PM 54 °F 48 °F 74% 29.99 in - SSW 8.1 mph - -  
7:00 PM 55.4 °F 48.2 °F 77% 29.98 in 6.2 mi SSW 8.1 mph - N/A   Mostly Cloudy
7:30 PM 53.6 °F 48.2 °F 82% 29.98 in 6.2 mi WSW 9.2 mph - N/A   Mostly Cloudy
8:00 PM 53.6 °F 50.0 °F 88% 29.98 in 6.2 mi WSW 8.1 mph - N/A Rain Light Rain Showers
8:30 PM 51.8 °F 46.4 °F 82% 30.01 in 5.0 mi South 10.4 mph - N/A Rain Rain Showers
8:47 PM 51.8 °F 46.4 °F 82% 30.01 in 4.3 mi SW 10.4 mph - N/A Rain Rain Showers
9:00 PM 51 °F 48 °F 85% 30.02 in 7 mi WSW 9.2 mph - - Rain Heavy Rain Showers
9:00 PM 50.0 °F 48.2 °F 94% 30.01 in 6.2 mi WSW 9.2 mph - N/A Rain Rain Showers
9:30 PM 51.8 °F 50.0 °F 94% 30.01 in 6.2 mi WSW 8.1 mph - N/A Rain Light Rain Showers
10:00 PM 52 °F 49 °F 85% 30.04 in - WSW 12.7 mph - -  
10:00 PM 51.8 °F 48.2 °F 88% 30.01 in 6.2 mi WSW 12.7 mph - N/A Rain Light Rain Showers
10:30 PM 51.8 °F 48.2 °F 88% 30.01 in 5.6 mi SW 19.6 mph - N/A Rain Light Rain Showers
11:00 PM 51.8 °F 48.2 °F 88% 30.04 in 6.2 mi SW 16.1 mph - N/A Rain Light Rain Showers
11:30 PM 51.8 °F 48.2 °F 88% 30.04 in 6.2 mi WSW 15.0 mph - N/A Rain Rain Showers